This is the latest recevied weather packets stored in our database for station/object KK7ISX. If no packets are shown the sender has not sent any weather packets the latest 10 day(s).
| Time | Temp. | Humidity | Pressure | Rain* | Wind** | Luminosity | Snow |
|---|---|---|---|---|---|---|---|
| 1777613629 | 11.67° C | 63% | 1018.8 hPa | 0 mm | - | 0 W/m² | - |
| 1777613326 | 12.22° C | 62% | 1018.7 hPa | 0 mm | - | 0 W/m² | - |
| 1777613023 | 12.22° C | 60% | 1018.6 hPa | 0 mm | - | 0 W/m² | - |
| 1777612718 | 12.78° C | 59% | 1018.6 hPa | 0 mm | - | 0 W/m² | - |
| 1777612415 | 12.78° C | 58% | 1018.7 hPa | 0 mm | - | 0 W/m² | - |
| 1777612110 | 13.33° C | 61% | 1018.7 hPa | 0 mm | - | 0 W/m² | - |
| 1777611806 | 13.33° C | 58% | 1018.6 hPa | 0 mm | - | 0 W/m² | - |
| 1777611502 | 12.78° C | 57% | 1018.5 hPa | 0 mm | - | 0 W/m² | - |
| 1777611199 | 13.33° C | 57% | 1018.6 hPa | 0 mm | - | 0 W/m² | - |
| 1777610896 | 13.33° C | 57% | 1018.3 hPa | 0 mm | - | 0 W/m² | - |
| 1777610590 | 13.33° C | 55% | 1018.6 hPa | 0 mm | - | 0 W/m² | - |
| 1777610289 | 13.33° C | 55% | 1018.6 hPa | 0 mm | - | 0 W/m² | - |
| 1777609987 | 13.89° C | 54% | 1018.4 hPa | 0 mm | - | 0 W/m² | - |
| 1777609683 | 14.44° C | 54% | 1018.3 hPa | 0 mm | - | 0 W/m² | - |
| 1777609380 | 14.44° C | 51% | 1018.3 hPa | 0 mm | - | 0 W/m² | - |
| 1777609078 | 14.44° C | 53% | 1018.3 hPa | 0 mm | - | 0 W/m² | - |
| 1777608775 | 13.89° C | 53% | 1018.1 hPa | 0 mm | - | 0 W/m² | - |
| 1777608471 | 14.44° C | 51% | 1018.1 hPa | 0 mm | - | 0 W/m² | - |
| 1777608170 | 15° C | 50% | 1018.1 hPa | 0 mm | - | 0 W/m² | - |
| 1777607866 | 15.56° C | 48% | 1018.1 hPa | 0 mm | - | 0 W/m² | - |
| 1777607562 | 15.56° C | 48% | 1018.1 hPa | 0 mm | - | 0 W/m² | - |
| 1777607258 | 15.56° C | 48% | 1017.9 hPa | 0 mm | - | 0 W/m² | - |
| 1777606954 | 15.56° C | 48% | 1018.1 hPa | 0 mm | - | 0 W/m² | - |
| 1777606650 | 15.56° C | 47% | 1017.7 hPa | 0 mm | - | 0 W/m² | - |
| 1777606346 | 16.11° C | 47% | 1017.7 hPa | 0 mm | - | 0 W/m² | - |
* Rain latest hour (hover to see other rain measurements)
** Current wind speed in m/s (hover to see current wind gust speed)